ASTRA 3B

Last updated on Fri Jul 11 2025 00:02:43 GMT+0000 (Coordinated Universal Time)

1 36581U 10021A 25191.49499730 .00000149 00000+0 00000+0 0 9992 2 36581 0.5840 88.4915 0003605 14.6259 27.2423 1.00273600 55445
UTC large
Height (km)
Speed (km/s)
/
Latitude / Longitude
Inclination (degrees)
Orbital Period (minutes)
Azimuth
Elevation
Range (km)
Doppler Factor

Next 0 passes for location: London (51.5072 / 0.1276)

Sorry there are no passes over London.